    Orbital elements:
    2009 SM103                                               Earth MOID = 0.2620 AU
    Epoch 2009 June 18.0 TT = JDT 2455000.5                 MPC
    M 346.05373              (2000.0)            P               Q
    n   0.19191438     Peri.   27.20146     +0.82962296     +0.52406255
    a   2.9766724      Node   299.88831     -0.54409833     +0.68150926
    e   0.5772598      Incl.   12.83323     -0.12523077     +0.51078721
    P   5.14           H   16.9           G   0.15           U   8
    Residuals in seconds of arc
    090925 704  0.4+  0.5+    090926 844  1.1+  0.5-    090926 B03  0.1-  0.0
    090925 704  0.2-  0.5-    090926 854  0.2+  0.0     090926 557  0.2-  0.3-
    090925 704  0.3+  0.8+    090926 854  0.4+  0.2+    090926 473  0.3-  0.4+
    090925 704  0.3-  0.4-    090926 854  0.1+  0.1+    090926 557  0.3-  0.1-
    090925 704  0.3-  0.3-    090926 H01  0.1-  0.1-    090926 B03  0.0   0.2-
    090926 I21  0.6-  0.5-    090926 H01  0.2-  0.3-    090926 557  0.2-  0.0
    090926 I21  0.6+  0.2-    090926 H06  0.6-  0.6+    090926 557  0.1-  0.2-
    090926 I21  0.5+  0.5+    090926 H01  0.2-  0.1-    090926 557  0.3-  0.4-
    090926 844  0.9-  0.4+    090926 H06  0.5-  0.4-    090926 557  0.0   0.1-
    090926 844  0.1+  0.2-    090926 118  0.1+  0.1+    090926 232  0.4+  0.1+
    090926 H06  0.1+  0.3-    090926 118  0.0   0.1+    090926 A81  0.0   0.5+
    090926 844  0.1+  0.6+    090926 595  0.3+  0.2-    090926 232  0.1+  0.3-
    090926 G56  0.3-  0.3+    090926 118  0.1+  0.2+    090926 B15  0.2+  0.1+
    090926 H06  0.1-  0.2-    090926 118  0.1+  0.1+    090926 B15  0.2+  0.1+
    090926 H06  0.3+  0.1-    090926 B03  0.1-  0.1-    090926 B15  0.1+  0.2+
    090926 G56  0.1-  0.1-    090926 557  0.0   0.2-    090926 B15  0.0   0.2+
    090926 H06  0.1-  0.3-    090926 473  0.1+  0.3+    090926 B15  0.1-  0.0
    090926 844 (2.6-  0.3+)   090926 595  0.3+  0.0     090926 A81  0.1-  0.4-
    090926 G56  0.3-  0.7-    090926 118  0.0   0.1+    090926 232  0.3+  0.1-
    090926 844  0.2+  0.0     090926 557  0.0   0.1-    090926 A81  0.0   0.1-
    090926 G56  0.3+  1.0+    090926 473  0.5-  0.4+
    
    Ephemeris:
    2009 SM103               a,e,i = 2.98, 0.58, 13                  q = 1.2584
    Date    TT    R. A. (2000) Decl.     Delta      r     Elong.  Phase     V
    2009 09 26    20 27.68   +12 28.8    0.438    1.298   123.6    40.0    17.3
    2009 10 06    20 54.87   +14 44.0    0.494    1.330   122.2    39.5    17.6
    2009 10 16    21 22.64   +16 13.8    0.560    1.371   120.9    38.6    17.9
    2009 10 26    21 50.42   +17 12.5    0.636    1.419   119.4    37.6    18.2
    2009 11 05    22 17.76   +17 52.5    0.724    1.473   117.4    36.7    18.5
    2009 11 15    22 44.34   +18 22.7    0.824    1.531   114.9    35.9    18.9
    2009 11 25    23 10.08   +18 49.9    0.937    1.593   111.8    35.1    19.2
    2009 12 05    23 34.92   +19 18.4    1.061    1.658   108.2    34.4    19.6
    2009 12 15    23 58.89   +19 50.0    1.197    1.725   104.1    33.6    19.9
    2009 12 25    00 22.10   +20 25.7    1.343    1.794    99.8    32.7    20.2
    2010 01 04    00 44.61   +21 05.3    1.499    1.864    95.1    31.7    20.5
    2010 01 14    01 06.53   +21 48.0    1.662    1.934    90.2    30.6    20.8
    2010 01 24    01 27.97   +22 32.8    1.832    2.005    85.1    29.3    21.0
    2010 02 03    01 48.97   +23 18.6    2.006    2.075    79.9    27.9    21.2
    2010 02 13    02 09.61   +24 03.9    2.184    2.145    74.6    26.3    21.4
    2010 02 23    02 29.96   +24 48.0    2.362    2.215    69.3    24.7    21.6
    2010 03 05    02 50.02   +25 29.5    2.540    2.284    63.9    22.9    21.8
    
    Timothy B. Spahr             (C) Copyright 2009 MPC           M.P.E.C. 2009-S99
    

    Read MPEC 2009-S98 Read MPEC 2009-S100


    MPEC number:

    Enter an MPEC number in one of the following forms:

    • 1997-B01 (the full form)
    • J97B01 (the packed version of the full form)
    • B01 (the abbreviated form)